Location: D�pe
(52.6057°N, 8.1808°E)
Time: 01:34:49
(UTC+00:00)

Okean-O - Pass Details

Date: 29 October 2020
Orbit: 638 x 641 km, 98.2° (Epoch: 23 November)

Event Time Altitude Azimuth Distance (km) Brightness Sun altitude
Rises 18:00:04 0° 172° (S) 2,936 5.9 -18.3°
Reaches altitude 10° 18:02:17 10° 175° (S) 2,031 5.1 -18.7°
Maximum altitude 18:06:41 65° 257° (WSW) 710 3.0 -19.3°
Drops below altitude 10° 18:11:07 10° 340° (NNW) 2,046 5.5 -20.0°
Sets 18:13:21 0° 344° (NNW) 2,960 6.3 -20.4°
